Location: Bottenau
(48.5138°N, 8.0462°E)
Time: 21:15:41
(UTC+00:00)

Cosmos 1812 Rocket - Pass Details

Date: 18 April 2021
Orbit: 605 x 632 km, 82.5° (Epoch: 18 May)

Event Time Altitude Azimuth Distance (km) Brightness Sun altitude
Exits shadow 20:47:56 17° 209° (SSW) 1,580 5.4 -20.8°
Maximum altitude 20:51:12 54° 283° (WNW) 766 4.2 -21.1°
Drops below altitude 10° 20:55:36 10° 1° (N) 2,023 6.8 -21.6°
Sets 20:57:54 0° 6° (N) 2,938 7.7 -21.9°
